When you browse on this site, cookies collect data to enhance your experience and personalize the content and advertising you see.
Visit our Privacy Policy to learn more. By continuing to use the site, you agree to this use of cookies and data.
  • In Austria
  • List of Countries
  • For 7 days
  • Water Temperature
  • Satellite Maps
  • Weather Map
  • News
  • Weather Widgets
  • user-avatar
    Login

    Hourly Weather Cottage Lake

    Today, 26 June, Wednesday

    Time Temperature Precipitation Wind Pressure Humidity
    00:00 +12°C° 0 mm 1 mps 750 mmHg 89%
    01:00 +11°C° 0 mm 1 mps 750 mmHg 92%
    02:00 +11°C° 0 mm 1 mps 750 mmHg 93%
    03:00 +11°C° 0 mm 1 mps 750 mmHg 94%
    04:00 +10°C° 0 mm 1 mps 750 mmHg 95%
    05:00 +12°C° 0 mm 1 mps 750 mmHg 88%
    06:00 +14°C° 0 mm 1 mps 750 mmHg 82%
    07:00 +15°C° 0 mm 1 mps 750 mmHg 75%
    08:00 +19°C° 0 mm 1 mps 750 mmHg 66%
    09:00 +21°C° 0 mm 1 mps 750 mmHg 57%
    10:00 +23°C° 0 mm 1 mps 749 mmHg 48%
    11:00 +23°C° 0 mm 1 mps 749 mmHg 46%
    12:00 +24°C° 0 mm 2 mps 749 mmHg 43%
    13:00 +25°C° 0 mm 3 mps 748 mmHg 41%
    14:00 +22°C° 0.9 mm 3 mps 748 mmHg 52%
    15:00 +20°C° 0.9 mm 2 mps 748 mmHg 63%
    16:00 +18°C° 0.9 mm 2 mps 748 mmHg 74%
    17:00 +17°C° 0.8 mm 2 mps 748 mmHg 80%
    18:00 +16°C° 0.8 mm 2 mps 748 mmHg 85%
    19:00 +15°C° 0.8 mm 1 mps 749 mmHg 91%
    20:00 +15°C° 0.3 mm 1 mps 749 mmHg 91%
    21:00 +14°C° 0.3 mm 1 mps 749 mmHg 92%
    22:00 +14°C° 0.3 mm 1 mps 750 mmHg 93%
    23:00 +13°C° 0.1 mm 1 mps 750 mmHg 93%

    Tomorrow, 27 June, Thursday

    Time Temperature Precipitation Wind Pressure Humidity
    00:00 +13°C° 0.1 mm 2 mps 750 mmHg 93%
    01:00 +13°C° 0.1 mm 2 mps 750 mmHg 94%
    02:00 +13°C° 0 mm 2 mps 750 mmHg 93%
    03:00 +13°C° 0 mm 2 mps 751 mmHg 92%
    04:00 +13°C° 0 mm 2 mps 751 mmHg 91%
    05:00 +13°C° 0.1 mm 2 mps 751 mmHg 91%
    06:00 +13°C° 0.1 mm 2 mps 752 mmHg 91%
    07:00 +13°C° 0.1 mm 2 mps 752 mmHg 91%
    08:00 +15°C° 0.1 mm 2 mps 752 mmHg 83%
    09:00 +16°C° 0.1 mm 2 mps 752 mmHg 75%
    10:00 +18°C° 0.1 mm 2 mps 752 mmHg 67%
    11:00 +18°C° 0.5 mm 2 mps 752 mmHg 68%
    12:00 +19°C° 0.5 mm 2 mps 752 mmHg 69%
    13:00 +19°C° 0.5 mm 2 mps 752 mmHg 71%
    14:00 +19°C° 0.7 mm 2 mps 752 mmHg 73%
    15:00 +19°C° 0.7 mm 2 mps 752 mmHg 75%
    16:00 +18°C° 0.7 mm 2 mps 752 mmHg 77%
    17:00 +19°C° 0.5 mm 1 mps 752 mmHg 80%
    18:00 +18°C° 0.5 mm 1 mps 752 mmHg 82%
    19:00 +15°C° 0.5 mm 0 mps 752 mmHg 85%
    20:00 +14°C° 0.1 mm 0 mps 752 mmHg 87%
    21:00 +13°C° 0.1 mm 0 mps 753 mmHg 90%
    22:00 +12°C° 0.1 mm 1 mps 753 mmHg 92%
    23:00 +12°C° 0 mm 1 mps 753 mmHg 93%

    Day after tomorrow, 28 June, Friday

    Time Temperature Precipitation Wind Pressure Humidity
    00:00 +11°C° 0 mm 1 mps 753 mmHg 94%
    01:00 +11°C° 0 mm 1 mps 753 mmHg 94%
    02:00 +11°C° 0 mm 1 mps 753 mmHg 95%
    03:00 +11°C° 0 mm 1 mps 754 mmHg 95%
    04:00 +11°C° 0 mm 1 mps 754 mmHg 96%
    05:00 +12°C° 0 mm 1 mps 754 mmHg 93%
    06:00 +13°C° 0 mm 1 mps 754 mmHg 91%
    07:00 +14°C° 0 mm 1 mps 754 mmHg 88%
    08:00 +16°C° 0.2 mm 1 mps 754 mmHg 79%
    09:00 +18°C° 0.2 mm 1 mps 754 mmHg 70%
    10:00 +19°C° 0.2 mm 2 mps 754 mmHg 61%
    11:00 +21°C° 0.2 mm 1 mps 753 mmHg 58%
    12:00 +21°C° 0.2 mm 1 mps 753 mmHg 55%
    13:00 +22°C° 0.2 mm 1 mps 753 mmHg 52%
    14:00 +21°C° 0.5 mm 1 mps 753 mmHg 61%
    15:00 +20°C° 0.5 mm 1 mps 753 mmHg 69%
    16:00 +19°C° 0.5 mm 1 mps 753 mmHg 78%
    17:00 +19°C° 0.6 mm 1 mps 753 mmHg 80%
    18:00 +18°C° 0.6 mm 1 mps 753 mmHg 82%
    19:00 +18°C° 0.6 mm 1 mps 753 mmHg 84%
    20:00 +15°C° 0.1 mm 1 mps 753 mmHg 87%
    21:00 +14°C° 0.1 mm 1 mps 754 mmHg 90%
    22:00 +13°C° 0.1 mm 1 mps 754 mmHg 92%
    23:00 +12°C° 0 mm 1 mps 755 mmHg 93%

    29 June, Saturday

    Time Temperature Precipitation Wind Pressure Humidity
    00:00 +12°C° 0 mm 1 mps 755 mmHg 93%
    01:00 +12°C° 0 mm 1 mps 755 mmHg 94%
    02:00 +11°C° 0 mm 1 mps 755 mmHg 94%
    03:00 +11°C° 0 mm 1 mps 755 mmHg 94%
    04:00 +11°C° 0 mm 1 mps 755 mmHg 95%
    05:00 +12°C° 0 mm 1 mps 755 mmHg 91%
    06:00 +14°C° 0 mm 1 mps 755 mmHg 87%
    07:00 +14°C° 0 mm 0 mps 755 mmHg 83%
    08:00 +18°C° 0 mm 1 mps 755 mmHg 73%
    09:00 +20°C° 0 mm 1 mps 755 mmHg 61%
    10:00 +23°C° 0 mm 1 mps 755 mmHg 48%
    11:00 +24°C° 0 mm 1 mps 755 mmHg 45%
    12:00 +24°C° 0 mm 1 mps 755 mmHg 41%
    13:00 +25°C° 0 mm 1 mps 754 mmHg 38%
    14:00 +25°C° 0 mm 2 mps 754 mmHg 39%
    15:00 +25°C° 0 mm 2 mps 754 mmHg 40%
    16:00 +24°C° 0 mm 3 mps 754 mmHg 41%
    17:00 +23°C° 0 mm 2 mps 754 mmHg 49%
    18:00 +20°C° 0 mm 2 mps 754 mmHg 56%
    19:00 +20°C° 0 mm 1 mps 754 mmHg 64%
    20:00 +18°C° 0 mm 1 mps 754 mmHg 72%
    21:00 +14°C° 0 mm 1 mps 755 mmHg 80%
    22:00 +12°C° 0 mm 1 mps 755 mmHg 88%
    23:00 +12°C° 0 mm 1 mps 755 mmHg 89%

    30 June, Sunday

    Time Temperature Precipitation Wind Pressure Humidity
    00:00 +12°C° 0 mm 1 mps 755 mmHg 89%
    01:00 +11°C° 0 mm 1 mps 755 mmHg 90%
    02:00 +11°C° 0 mm 1 mps 755 mmHg 91%
    03:00 +10°C° 0 mm 0 mps 755 mmHg 91%
    04:00 +10°C° 0 mm 0 mps 755 mmHg 91%
    05:00 +12°C° 0 mm 0 mps 755 mmHg 82%
    06:00 +15°C° 0 mm 1 mps 755 mmHg 74%
    07:00 +18°C° 0 mm 1 mps 755 mmHg 65%
    08:00 +20°C° 0 mm 1 mps 755 mmHg 59%
    09:00 +21°C° 0 mm 2 mps 755 mmHg 53%
    10:00 +24°C° 0 mm 2 mps 755 mmHg 47%
    11:00 +25°C° 0 mm 3 mps 754 mmHg 44%
    12:00 +26°C° 0 mm 3 mps 754 mmHg 41%
    13:00 +27°C° 0 mm 3 mps 753 mmHg 38%
    14:00 +27°C° 0 mm 3 mps 753 mmHg 38%
    15:00 +27°C° 0 mm 3 mps 753 mmHg 38%
    16:00 +27°C° 0 mm 3 mps 752 mmHg 38%
    17:00 +25°C° 0 mm 3 mps 752 mmHg 45%
    18:00 +23°C° 0 mm 2 mps 752 mmHg 52%
    19:00 +21°C° 0 mm 2 mps 752 mmHg 59%
    20:00 +19°C° 0 mm 2 mps 752 mmHg 66%
    21:00 +18°C° 0 mm 1 mps 753 mmHg 74%
    22:00 +15°C° 0 mm 1 mps 753 mmHg 81%
    23:00 +14°C° 0 mm 1 mps 753 mmHg 83%

    1 July, Monday

    Time Temperature Precipitation Wind Pressure Humidity
    00:00 +14°C° 0 mm 1 mps 753 mmHg 85%
    01:00 +12°C° 0 mm 0 mps 753 mmHg 87%
    02:00 +12°C° 0 mm 0 mps 753 mmHg 87%
    03:00 +13°C° 0 mm 1 mps 754 mmHg 88%
    04:00 +13°C° 0 mm 1 mps 754 mmHg 89%
    05:00 +14°C° 0 mm 1 mps 754 mmHg 82%
    06:00 +16°C° 0 mm 1 mps 754 mmHg 75%
    07:00 +19°C° 0 mm 1 mps 754 mmHg 68%
    08:00 +20°C° 0 mm 1 mps 754 mmHg 61%
    09:00 +21°C° 0 mm 2 mps 754 mmHg 55%
    10:00 +24°C° 0 mm 2 mps 754 mmHg 48%
    11:00 +25°C° 0 mm 2 mps 754 mmHg 45%
    12:00 +26°C° 0 mm 2 mps 754 mmHg 43%
    13:00 +27°C° 0 mm 2 mps 754 mmHg 40%
    14:00 +27°C° 0 mm 2 mps 753 mmHg 42%
    15:00 +27°C° 0 mm 2 mps 753 mmHg 43%
    16:00 +27°C° 0 mm 2 mps 753 mmHg 44%
    17:00 +25°C° 0 mm 2 mps 753 mmHg 53%
    18:00 +23°C° 0 mm 1 mps 753 mmHg 61%
    19:00 +21°C° 0 mm 1 mps 753 mmHg 70%
    20:00 +20°C° 0 mm 1 mps 753 mmHg 76%
    21:00 +18°C° 0 mm 1 mps 754 mmHg 81%
    22:00 +16°C° 0 mm 1 mps 754 mmHg 87%
    23:00 +15°C° 0.1 mm 1 mps 754 mmHg 89%
    Show more